Location: Chimay
(50.0486°N, 4.3171°E)
Time: 16:25:04
(UTC+00:00)

Meteor 1-18 Rocket - Pass Details

Date: 08 August 2020
Orbit: 836 x 909 km, 81.2° (Epoch: 25 September)

Event Time Altitude Azimuth Distance (km) Brightness Sun altitude
Rises 20:58:27 0° 349° (N) 3,437 8.4 -14.3°
Reaches altitude 10° 21:00:56 10° 354° (N) 2,488 7.5 -14.6°
Maximum altitude 21:06:30 59° 74° (ENE) 969 4.4 -15.1°
Enters shadow 21:09:50 24° 146° (SE) 1,678 5.1 -15.5°
